Change the Weather History Date:

Saturday, August 3, 2013

  Actual Average Record
Temperature  
Mean Temperature 60 °F -  
Max Temperature 73 °F 82 °F 89 °F (2012)
Min Temperature 46 °F 58 °F 46 °F (2013)
Degree Days  
Heating Degree Days 6    
Growing Degree Days 10 (Base 50)    
Moisture  
Dew Point 53 °F    
Average Humidity 79    
Maximum Humidity 100    
Minimum Humidity 43    
Precipitation  
Precipitation 0.00 in - - ()
Sea Level Pressure  
Sea Level Pressure 30.19 in    
Wind  
Wind Speed 5 mph (ENE)    
Max Wind Speed 12 mph    
Max Gust Speed 16 mph    
Visibility 10 miles    
Events      
Averages and records for this station are not official NWS values.
T = Trace of Precipitation, MM = Missing Value Source: NWS Daily Summary

Daily Weather History Graph

Daily Weather History Graph

Search for Another Location

Airport or City:

Trip Planner

Search our weather history database for the weather conditions in past years. The results will help you decide how hot, cold, wet, or windy it might be!

Date:

Astronomy

Aug. 03, 2013 Rise Set
Actual Time 6:18 AM CDT 8:49 PM CDT
Civil Twilight 5:46 AM CDT 9:21 PM CDT
Nautical Twilight 5:05 AM CDT 10:02 PM CDT
Astronomical Twilight 4:19 AM CDT 10:48 PM CDT
Moon 3:27 AM CDT (8/3) 6:33 PM CDT (8/3)
Length of Visible Light 15h 35m
Length of Day
14h 30m
Waning Crescent, 9% of the Moon is Illuminated
Aug 3
Waning Crescent
Aug 6
New
Aug 14
First Quarter
Aug 20
Full
Aug 28
Last Quarter

Hourly Weather History & Observations

Time (CDT) Temp. Windchill Dew Point Humidity Pressure Visibility Wind Dir Wind Speed Gust Speed Precip Events Conditions
12:10 AM 53.6 °F - 53.6 °F 100% 30.11 in 10.0 mi Calm Calm - N/A   Clear
12:30 AM 51.8 °F - 51.8 °F 100% 30.12 in 10.0 mi North 5.8 mph - N/A   Clear
12:50 AM 51.8 °F - 51.8 °F 100% 30.11 in 10.0 mi NNE 5.8 mph - N/A   Clear
1:10 AM 51.8 °F - 51.8 °F 100% 30.13 in 10.0 mi North 4.6 mph - N/A   Clear
1:30 AM 53.6 °F - 53.6 °F 100% 30.12 in 10.0 mi NNE 5.8 mph - N/A   Clear
1:50 AM 51.8 °F - 51.8 °F 100% 30.12 in 10.0 mi NE 3.5 mph - N/A   Clear
2:10 AM 50.0 °F - 50.0 °F 100% 30.13 in 10.0 mi Calm Calm - N/A   Clear
2:30 AM 50.0 °F - 50.0 °F 100% 30.13 in 10.0 mi Calm Calm - N/A   Clear
2:50 AM 51.8 °F - 51.8 °F 100% 30.13 in 10.0 mi NE 3.5 mph - N/A   Clear
3:10 AM 50.0 °F - 50.0 °F 100% 30.14 in 10.0 mi Calm Calm - N/A   Clear
3:30 AM 48.2 °F - 48.2 °F 100% 30.14 in 10.0 mi NNE 3.5 mph - N/A   Clear
3:50 AM 48.2 °F - 48.2 °F 100% 30.14 in 10.0 mi Calm Calm - N/A   Clear
4:10 AM 50.0 °F - 50.0 °F 100% 30.14 in 10.0 mi NW 3.5 mph - N/A   Clear
4:30 AM 48.2 °F - 48.2 °F 100% 30.14 in 10.0 mi NNW 4.6 mph - N/A   Clear
4:50 AM 48.2 °F - 48.2 °F 100% 30.15 in 10.0 mi NW 4.6 mph - N/A   Clear
5:10 AM 46.4 °F 43.5 °F 46.4 °F 100% 30.16 in 10.0 mi NW 5.8 mph - N/A   Clear
5:30 AM 48.2 °F - 48.2 °F 100% 30.17 in 10.0 mi NW 4.6 mph - N/A   Clear
5:50 AM 46.4 °F 43.5 °F 46.4 °F 100% 30.16 in 10.0 mi North 5.8 mph - N/A   Clear
6:10 AM 48.2 °F - 48.2 °F 100% 30.18 in 10.0 mi NNW 4.6 mph - N/A   Clear
6:30 AM 48.2 °F - 48.2 °F 100% 30.18 in 10.0 mi North 5.8 mph - N/A   Clear
6:50 AM 50.0 °F - 50.0 °F 100% 30.18 in 10.0 mi NE 5.8 mph - N/A   Clear
7:10 AM 53.6 °F - 53.6 °F 100% 30.19 in 10.0 mi ENE 4.6 mph - N/A   Clear
7:30 AM 55.4 °F - 55.4 °F 100% 30.19 in 10.0 mi ENE 4.6 mph - N/A   Clear
7:50 AM 57.2 °F - 57.2 °F 100% 30.20 in 10.0 mi NE 4.6 mph - N/A   Clear
8:10 AM 57.2 °F - 57.2 °F 100% 30.19 in 10.0 mi ENE 5.8 mph - N/A   Clear
8:30 AM 59.0 °F - 59.0 °F 100% 30.20 in 10.0 mi ENE 4.6 mph - N/A   Clear
8:50 AM 59.0 °F - 59.0 °F 100% 30.21 in 10.0 mi Calm Calm - N/A   Clear
9:10 AM 62.6 °F - 60.8 °F 94% 30.21 in 10.0 mi NE 4.6 mph - N/A   Clear
9:30 AM 62.6 °F - 59.0 °F 88% 30.21 in 10.0 mi ENE 3.5 mph - N/A   Clear
9:50 AM 64.4 °F - 53.6 °F 68% 30.21 in 10.0 mi East 6.9 mph - N/A   Clear
10:10 AM 64.4 °F - 53.6 °F 68% 30.21 in 10.0 mi East 5.8 mph - N/A   Clear
10:30 AM 66.2 °F - 53.6 °F 64% 30.21 in 10.0 mi ENE 6.9 mph - N/A   Clear
10:50 AM 64.4 °F - 55.4 °F 73% 30.21 in 10.0 mi ENE 5.8 mph - N/A   Clear
11:10 AM 66.2 °F - 55.4 °F 68% 30.21 in 10.0 mi East 4.6 mph - N/A   Clear
11:30 AM 68.0 °F - 53.6 °F 60% 30.23 in 10.0 mi SE 5.8 mph - N/A   Clear
11:50 AM 69.8 °F - 53.6 °F 56% 30.22 in 10.0 mi East 4.6 mph - N/A   Clear
12:10 PM 69.8 °F - 48.2 °F 46% 30.23 in 10.0 mi ENE 5.8 mph - N/A   Clear
12:30 PM 71.6 °F - 50.0 °F 46% 30.23 in 10.0 mi East 6.9 mph - N/A   Clear
12:50 PM 71.6 °F - 48.2 °F 43% 30.22 in 10.0 mi East 8.1 mph - N/A   Clear
1:10 PM 71.6 °F - 50.0 °F 46% 30.22 in 10.0 mi East 11.5 mph 16.1 mph N/A   Clear
1:30 PM 71.6 °F - 50.0 °F 46% 30.23 in 10.0 mi East 9.2 mph - N/A   Clear
1:50 PM 71.6 °F - 50.0 °F 46% 30.23 in 10.0 mi East 11.5 mph 16.1 mph N/A   Clear
2:10 PM 73.4 °F - 53.6 °F 50% 30.22 in 10.0 mi East 10.4 mph - N/A   Clear
2:30 PM 73.4 °F - 51.8 °F 47% 30.22 in 10.0 mi East 9.2 mph - N/A   Clear
2:50 PM 73.4 °F - 50.0 °F 44% 30.21 in 10.0 mi East 11.5 mph - N/A   Clear
3:10 PM 73.4 °F - 50.0 °F 44% 30.22 in 10.0 mi NE 4.6 mph - N/A   Clear
3:30 PM 73.4 °F - 51.8 °F 47% 30.21 in 10.0 mi ENE 9.2 mph - N/A   Clear
3:50 PM 73.4 °F - 51.8 °F 47% 30.21 in 10.0 mi ENE 8.1 mph - N/A   Clear
4:10 PM 73.4 °F - 50.0 °F 44% 30.21 in 10.0 mi ESE 4.6 mph - N/A   Clear
4:30 PM 73.4 °F - 53.6 °F 50% 30.21 in 10.0 mi ENE 6.9 mph - N/A   Clear
4:50 PM 73.4 °F - 53.6 °F 50% 30.20 in 10.0 mi East 6.9 mph - N/A   Clear
5:10 PM 73.4 °F - 53.6 °F 50% 30.20 in 10.0 mi ENE 9.2 mph - N/A   Scattered Clouds
5:30 PM 73.4 °F - 53.6 °F 50% 30.19 in 10.0 mi ENE 6.9 mph - N/A   Partly Cloudy
5:50 PM 73.4 °F - 53.6 °F 50% 30.19 in 10.0 mi East 8.1 mph - N/A   Clear
6:10 PM 71.6 °F - 50.0 °F 46% 30.19 in 10.0 mi East 4.6 mph - N/A   Clear
6:30 PM 71.6 °F - 51.8 °F 50% 30.19 in 10.0 mi East 8.1 mph - N/A   Clear
6:50 PM 71.6 °F - 53.6 °F 53% 30.20 in 10.0 mi East 5.8 mph - N/A   Clear
7:10 PM 71.6 °F - 53.6 °F 53% 30.20 in 10.0 mi East 5.8 mph - N/A   Clear
7:30 PM 68.0 °F - 55.4 °F 64% 30.21 in 10.0 mi East 6.9 mph - N/A   Partly Cloudy
7:50 PM 66.2 °F - 57.2 °F 73% 30.20 in 10.0 mi East 4.6 mph - N/A   Partly Cloudy
8:10 PM 64.4 °F - 59.0 °F 83% 30.20 in 10.0 mi East 5.8 mph - N/A   Clear
8:30 PM 62.6 °F - 59.0 °F 88% 30.20 in 10.0 mi East 5.8 mph - N/A   Clear
8:50 PM 62.6 °F - 59.0 °F 88% 30.21 in 10.0 mi East 4.6 mph - N/A   Clear
9:10 PM 62.6 °F - 60.8 °F 94% 30.22 in 10.0 mi East 4.6 mph - N/A   Clear
9:30 PM 60.8 °F - 60.8 °F 100% 30.22 in 10.0 mi ENE 4.6 mph - N/A   Clear
9:50 PM 59.0 °F - 59.0 °F 100% 30.23 in 10.0 mi ENE 4.6 mph - N/A   Clear
10:10 PM 57.2 °F - 57.2 °F 100% 30.24 in 10.0 mi Calm Calm - N/A   Clear
10:30 PM 59.0 °F - 59.0 °F 100% 30.23 in 10.0 mi East 4.6 mph - N/A   Clear
10:50 PM 57.2 °F - 57.2 °F 100% 30.24 in 10.0 mi East 5.8 mph - N/A   Clear
11:10 PM 57.2 °F - 57.2 °F 100% 30.24 in 10.0 mi East 3.5 mph - N/A   Clear
11:30 PM 57.2 °F - 57.2 °F 100% 30.24 in 10.0 mi ENE 5.8 mph - N/A   Clear
11:50 PM 55.4 °F - 55.4 °F 100% 30.24 in 10.0 mi East 5.8 mph - N/A   Clear